Back to catalog

CZ-6A DEB

AlivePO
NORAD 61322·DEBRIS·🇨🇳 China

Launched Aug 6, 2024 from Taiyuan Satellite Launch Center

Loading…

Next Passes (next 24 hours)

TLE

FreshSource: Space-Track

Epoch: Sep 13, 2026, 10:13 UTC

1 61322U 24140UK  26256.42592344  .00005364  00000-0  85671-3 0  9997
2 61322  88.8775 247.4786 0106814 310.0335  49.1546 14.67952894108140

Track CZ-6A DEB in real time with AllMySat

Download on the App Store